sat.trackr.live / text

‹ back to catalog

STARLINK-5161

NORAD 54163 · 2022-141G

PAYLOAD ACTIVE UNKNOWN

§ Identity

Operator
Country
US
Launch date
2022-10-28
Launch site
AFWTR
Launch vehicle
Mass (kg)
RCS (m²)

Purposes: comms

External: N2YO · Heavens-Above · Gunter

§ Orbital elements

Epoch: 2026-09-20T07:14:21.446304Z

Period
93.85 min
Inclination
53.1600°
Eccentricity
0.0001245
Mean motion
15.34390735 rev/d
Perigee alt
461.9 km
Apogee alt
463.6 km
Semi-major
6,840.9 km
B*
2.7684e-5
RAAN
194.6453°
Arg perigee
89.0179°
Mean anomaly
271.0967°
Rev number
21,545

§ Raw data

STARLINK-51611 54163U 22141G   26263.30163711  .00000559  00000+0  27684-4 0  99992 54163  53.1600 194.6453 0001245  89.0179 271.0967 15.34390735215453

JSON: /api/v1/satellites/54163 · /tle

For live sub-satellite position, see the globe view (requires WebGL).

§ Visibility from observer

Set your observer location to see the next 7 days of passes ≥ 10°. The values pass through the URL so the page stays shareable.

No JS? Fill the form by hand. The geolocation button needs JavaScript.